EW5835 Weather Reports


Display with metric or nautical units.
time (UTC)temp
F
wind
direction
speed
MPH
gust
MPH
rain 1hr
in
rain 24hr
in
rain mn
in
humidity
%
barometer
mb
20260507183427 58 31 0.0 2.0 0.00 0.52 0.00 42 1009.3
20260507182925 58 90 0.0 0.0 0.00 0.52 0.00 42 1009.4
20260507182425 57 197 0.0 1.0 0.00 0.52 0.00 42 1009.5
20260507181925 57 259 0.0 1.0 0.00 0.52 0.00 42 1009.4
20260507181426 57 228 0.0 1.0 0.00 0.52 0.00 42 1009.5
20260507180925 57 251 0.0 1.0 0.00 0.52 0.00 42 1009.6
20260507180424 57 66 0.0 1.0 0.00 0.52 0.00 42 1009.7
20260507175924 58 329 0.0 0.0 0.00 0.52 0.00 42 1009.7
20260507175429 56 118 0.0 0.0 0.00 0.52 0.00 40 1009.9
20260507175424 58 97 0.0 0.0 0.00 0.52 0.00 45 1009.7
20260507174923 57 327 0.0 0.0 0.00 0.52 0.00 44 1009.8
20260507173923 57 63 0.0 5.0 0.00 0.52 0.00 42 1010.0
20260507173423 57 157 1.0 5.0 0.00 0.52 0.00 43 1010.0
20260507172923 57 113 0.0 4.0 0.00 0.52 0.00 43 1010.0
20260507172422 56 97 0.0 0.0 0.00 0.52 0.00 40 1009.9
20260507171924 56 13 0.0 0.0 0.00 0.52 0.00 45 1009.9
20260507171421 56 11 0.0 1.0 0.00 0.52 0.00 43 1010.0
20260507170922 56 338 0.0 1.0 0.00 0.52 0.00 43 1010.1
20260507170422 56 30 0.0 0.0 0.00 0.52 0.00 47 1010.1
20260507165922 56 82 0.0 0.0 0.00 0.52 0.00 41 1010.1
20260507165428 56 261 0.0 1.0 0.00 0.52 0.00 44 1010.0
20260507165422 57 343 0.0 0.0 0.00 0.52 0.00 43 1010.1
20260507164922 57 90 0.0 1.0 0.00 0.52 0.00 42 1010.1
20260507163922 56 221 0.0 0.0 0.00 0.52 0.00 48 1010.2
20260507163421 56 293 0.0 4.0 0.00 0.52 0.00 47 1010.4
20260507162921 55 261 1.0 4.0 0.00 0.52 0.00 45 1010.5
20260507162423 56 17 1.0 3.0 0.00 0.52 0.00 45 1010.4
20260507161925 55 37 0.0 0.0 0.00 0.52 0.00 47 1010.5
20260507161921 56 17 1.0 3.0 0.00 0.52 0.00 45 1010.4
20260507160920 55 348 0.0 0.0 0.00 0.52 0.00 50 1010.7
20260507160421 54 82 0.0 6.0 0.00 0.52 0.00 45 1010.7
20260507160418 54 69 0.0 6.0 0.00 0.52 0.00 45 1010.8
20260507155420 54 51 0.0 0.0 0.00 0.52 0.00 48 1010.8
20260507154919 54 131 0.0 1.0 0.00 0.52 0.00 47 1010.9
20260507154419 54 254 0.0 1.0 0.00 0.52 0.00 46 1011.0
20260507153918 55 282 0.0 2.0 0.00 0.52 0.00 46 1011.0
20260507153419 55 214 0.0 2.0 0.00 0.52 0.00 48 1011.2
20260507152919 55 285 0.0 2.0 0.00 0.52 0.00 48 1011.3
20260507152421 55 189 0.0 2.0 0.00 0.52 0.00 53 1011.3
20260507151923 54 348 0.0 1.0 0.00 0.52 0.00 48 1011.3
20260507151919 54 31 0.0 0.0 0.00 0.52 0.00 47 1011.3
20260507150922 54 30 0.0 1.0 0.00 0.52 0.00 47 1011.5
20260507150918 54 334 0.0 1.0 0.00 0.52 0.00 48 1011.6
20260507145916 54 245 0.0 2.0 0.00 0.52 0.00 48 1011.3
20260507145417 54 73 0.0 7.0 0.00 0.52 0.00 46 1011.5
20260507144921 53 334 0.0 0.0 0.00 0.52 0.00 49 1011.3
20260507144917 54 334 0.0 7.0 0.00 0.52 0.00 46 1011.3
20260507143922 53 86 0.0 6.0 0.00 0.52 0.00 47 1011.5
20260507143916 53 8 0.0 6.0 0.00 0.52 0.00 48 1011.3
20260507143531 52 351 0.0 0.0 0.00 0.52 0.00 48 1011.5
20260507143030 52 357 0.0 0.0 0.00 0.52 0.00 46 1011.6
20260507142416 52 1 0.0 0.0 0.00 0.52 0.00 47 1011.6
20260507142028 52 293 0.0 0.0 0.00 0.52 0.00 52 1011.7
20260507140917 52 306 0.0 0.0 0.00 0.52 0.00 52 1011.7
20260507140417 52 216 0.0 0.0 0.00 0.52 0.00 50 1011.6
20260507135915 52 87 0.0 0.0 0.00 0.52 0.00 51 1011.8
20260507135414 52 358 0.0 0.0 0.00 0.52 0.00 47 1011.8
20260507134920 51 89 0.0 0.0 0.00 0.52 0.00 47 1011.8
20260507134916 51 262 0.0 0.0 0.00 0.52 0.00 50 1011.7
20260507133920 50 8 0.0 0.0 0.00 0.52 0.00 50 1011.8
20260507133915 51 321 0.0 0.0 0.00 0.52 0.00 48 1011.8
20260507132914 50 90 0.0 1.0 0.00 0.52 0.00 52 1011.8
20260507132415 49 285 0.0 1.0 0.00 0.52 0.00 52 1011.8
20260507131914 49 240 0.0 0.0 0.00 0.52 0.00 52 1011.9
20260507131414 49 80 0.0 0.0 0.00 0.52 0.00 53 1012.0
20260507130913 49 87 0.0 0.0 0.00 0.52 0.00 56 1011.8
20260507130413 48 76 0.0 0.0 0.00 0.52 0.00 52 1011.8
20260507125912 49 116 0.0 0.0 0.00 0.52 0.00 55 1011.8
20260507125412 49 41 0.0 0.0 0.00 0.52 0.00 52 1011.8
20260507124913 48 69 0.0 0.0 0.00 0.52 0.00 52 1011.8
20260507124412 48 8 0.0 2.0 0.00 0.52 0.00 53 1011.8
20260507123917 48 329 0.0 0.0 0.00 0.52 0.00 53 1011.9
20260507123912 48 327 0.0 2.0 0.00 0.52 0.00 53 1011.9
20260507122912 47 39 0.0 0.0 0.00 0.52 0.00 53 1011.9
20260507122412 47 72 0.0 0.0 0.00 0.52 0.00 55 1011.7
20260507121912 47 357 0.0 0.0 0.00 0.52 0.00 56 1011.8
20260507121416 47 336 0.0 3.0 0.00 0.52 0.00 57 1011.8
20260507121412 47 85 0.0 2.0 0.00 0.52 0.00 57 1011.8
20260507121026 47 336 0.0 3.0 0.00 0.52 0.00 57 1011.7
20260507120523 47 114 0.0 0.0 0.00 0.52 0.00 56 1011.5
20260507115412 47 34 0.0 0.0 0.00 0.52 0.00 60 1011.6
20260507114913 47 313 0.0 0.0 0.52 0.52 0.00 60 1011.6
20260507114909 47 306 0.0 0.0 0.00 0.52 0.00 60 1011.6
20260507113910 46 18 0.0 0.0 0.52 0.52 0.00 60 1011.6
20260507113410 46 111 0.0 0.0 0.52 0.52 0.00 63 1011.5
20260507112914 45 340 0.0 0.0 0.52 0.52 0.00 63 1011.5
20260507112910 46 133 0.0 0.0 0.52 0.52 0.00 61 1011.3
20260507111909 45 93 0.0 0.0 0.52 0.52 0.00 63 1011.5
20260507111415 45 6 0.0 0.0 0.52 0.52 0.00 63 1011.2
20260507111410 45 34 0.0 0.0 0.52 0.52 0.00 63 1011.5
20260507110409 45 47 0.0 0.0 0.52 0.52 0.00 64 1011.3
20260507105913 44 336 0.0 0.0 0.52 0.92 0.00 67 1011.2
20260507105909 44 210 0.0 0.0 0.52 0.52 0.00 67 1011.5
20260507104908 44 93 0.0 0.0 0.52 0.92 0.00 89 1011.1
20260507104407 0 0.0 0.0 0.00 0.40 0.00 1011.1
20260507103913 0 0.0 0.0 0.00 0.40 0.00 1011.0
20260507103908 0 0.0 0.0 0.00 0.40 0.00 1011.0
20260507103407 0 0.0 0.0 0.00 0.40 0.00 1011.0
20260507103015 0 0.0 0.0 0.00 0.40 0.00 1010.6
20260507102404 0 0.0 0.0 0.00 0.40 0.00 1010.8
20260507101402 0 0.0 0.0 0.00 0.40 0.00 1010.5
20260507100906 0 0.0 0.0 0.00 0.40 0.00 1010.5
20260507100902 0 0.0 0.0 0.00 0.40 0.00 1010.6
20260507095900 0 0.0 0.0 0.00 0.40 0.00 1010.5
20260507095359 0 0.0 0.0 0.00 0.40 0.00 1010.4
20260507094858 0 0.0 0.0 0.00 0.40 0.00 1010.3
20260507094357 0 0.0 0.0 0.00 0.40 0.00 1010.2
20260507093858 0 0.0 0.0 0.00 0.40 0.00 1010.0
20260507093355 0 0.0 0.0 0.00 0.40 0.00 1009.9
20260507092856 0 0.0 0.0 0.00 0.40 0.00 1009.9
20260507092354 0 0.0 0.0 0.00 0.40 0.00 1009.9
20260507091853 0 0.0 0.0 0.00 0.40 0.00 1010.0
20260507091352 0 0.0 0.0 0.00 0.40 0.00 1009.9
20260507090851 0 0.0 0.0 0.00 0.40 0.00 1009.8
20260507090352 0 0.0 0.0 0.00 0.40 0.00 1010.0
20260507085849 0 0.0 0.0 0.00 0.40 0.00 1010.0
20260507085348 0 0.0 0.0 0.00 0.40 0.00 1010.0
20260507084852 0 0.0 0.0 0.00 0.40 0.00 1010.0
20260507084848 0 0.0 0.0 0.00 0.40 0.00 1010.0
20260507083846 0 0.0 0.0 0.00 0.40 0.00 1009.9
20260507083345 0 0.0 0.0 0.00 0.40 0.00 1010.0
20260507082845 0 0.0 0.0 0.00 0.40 0.00 1010.1
20260507082344 0 0.0 0.0 0.00 0.40 0.00 1010.1
20260507081842 0 0.0 0.0 0.00 0.40 0.00 1010.3
20260507081342 0 0.0 0.0 0.00 0.40 0.00 1010.5
20260507080840 0 0.0 0.0 0.00 0.40 0.00 1010.5
20260507080341 0 0.0 0.0 0.00 0.40 0.00 1010.5
20260507075839 0 0.0 0.0 0.00 0.40 0.00 1010.7
20260507075338 0 0.0 0.0 0.00 0.40 0.00 1010.6
20260507074837 0 0.0 0.0 0.00 0.40 0.00 1010.7
20260507074340 0 0.0 0.0 0.00 0.40 0.00 1010.7
20260507074336 0 0.0 0.0 0.00 0.40 0.00 1010.7
20260507073336 0 0.0 0.0 0.00 0.40 0.00 1010.6
20260507072833 0 0.0 0.0 0.00 0.40 0.00 1010.8
20260507072332 0 0.0 0.0 0.00 0.40 0.00 1010.8
20260507071836 0 0.0 0.0 0.00 0.40 0.00 1010.7
20260507071832 0 0.0 0.0 0.00 0.40 0.00 1010.8
20260507070830 0 0.0 0.0 0.00 0.40 0.00 1010.5
20260507070333 0 0.0 0.0 0.00 0.40 0.00 1010.5
20260507070329 0 0.0 0.0 0.00 0.40 0.00 1010.4
20260507065328 0 0.0 0.0 0.00 0.40 0.00 1010.3
20260507064828 0 0.0 0.0 0.00 0.40 0.00 1010.3
20260507064326 0 0.0 0.0 0.00 0.40 0.00 1010.4
20260507063826 0 0.0 0.0 0.00 0.40 0.00 1010.1
20260507063330 0 0.0 0.0 0.00 0.40 0.00 1009.8
20260507063325 0 0.0 0.0 0.00 0.40 0.00 1009.8
20260507062824 0 0.0 0.0 0.00 0.40 0.00 1009.9
20260507061822 0 0.0 0.0 0.00 0.40 0.00 1009.7
20260507061321 0 0.0 0.0 0.00 0.40 0.00 1009.6
20260507060821 0 0.0 0.0 0.00 0.40 0.00 1009.6
20260507060320 0 0.0 0.0 0.00 0.40 0.00 1009.5
20260507055819 0 0.0 0.0 0.00 0.40 0.00 1009.5
20260507055322 0 0.0 0.0 0.00 0.40 0.00 1009.8
20260507055318 0 0.0 0.0 0.00 0.40 0.00 1009.9
20260507054925 0 0.0 0.0 0.00 0.40 0.00 1009.7
20260507053815 0 0.0 0.0 0.00 0.40 0.00 1009.8
20260507053315 0 0.0 0.0 0.00 0.40 0.00 1009.7
20260507052813 0 0.0 0.0 0.00 0.40 0.00 1009.9
20260507052317 0 0.0 0.0 0.00 0.40 0.00 1010.2
20260507052312 0 0.0 0.0 0.00 0.40 0.00 1009.9
20260507051811 0 0.0 0.0 0.00 0.40 0.00 1010.2
20260507050809 0 0.0 0.0 0.00 0.40 0.00 1010.2
20260507050308 0 0.0 0.0 0.00 0.40 0.00 1010.3
20260507045808 0 0.0 0.0 0.00 0.40 0.00 1009.9
20260507045307 0 0.0 0.0 0.00 0.40 0.00 1010.2
20260507044805 0 0.0 0.0 0.00 0.40 0.00 1010.2
20260507044305 0 0.0 0.0 0.00 0.40 0.00 1010.2
20260507043804 0 0.0 0.0 0.00 0.40 0.00 1010.0
20260507043308 0 0.0 0.0 0.00 0.40 0.00 1010.4
20260507043304 0 0.0 0.0 0.00 0.40 0.00 1010.3
20260507042301 0 0.0 0.0 0.00 0.40 0.00 1010.3
20260507041801 0 0.0 0.0 0.00 0.40 0.00 1010.3
20260507041300 0 0.0 0.0 0.00 0.40 0.00 1010.1
20260507040759 0 0.0 0.0 0.00 0.40 0.00 1009.9
20260507040257 0 0.0 0.0 0.00 0.40 0.00 1009.9
20260507035757 0 0.0 0.0 0.00 0.40 0.00 1010.3
20260507035301 0 0.0 0.0 0.00 0.40 0.00 1009.9
20260507035257 0 0.0 0.0 0.00 0.40 0.00 1010.0
20260507034254 0 0.0 0.0 0.00 0.40 0.00 1009.9
20260507033753 0 0.0 0.0 0.00 0.40 0.00 1009.8
20260507033256 0 0.0 0.0 0.00 0.40 0.00 1009.7
20260507033252 0 0.0 0.0 0.00 0.40 0.00 1009.7
20260507032252 0 0.0 0.0 0.00 0.40 0.00 1009.8
20260507031755 0 0.0 0.0 0.00 0.40 0.00 1009.7
20260507031750 0 0.0 0.0 0.00 0.40 0.00 1009.8
20260507030749 0 0.0 0.0 0.00 0.40 0.00 1009.7
20260507030248 0 0.0 0.0 0.00 0.40 0.00 1009.7
20260507025748 0 0.0 0.0 0.00 0.40 0.00 1009.8
20260507025246 0 0.0 0.0 0.00 0.40 0.00 1009.8
20260507024746 0 0.0 0.0 0.00 0.40 0.00 1009.8
20260507024244 0 0.0 0.0 0.00 0.40 0.00 1009.8
20260507023744 0 0.0 0.0 0.00 0.40 0.00 1009.8
20260507023246 0 0.0 0.0 0.00 0.40 0.00 1010.0
20260507023242 0 0.0 0.0 0.00 0.40 0.00 1009.9
20260507022241 0 0.0 0.0 0.00 0.40 0.00 1009.9
20260507021743 0 0.0 0.0 0.00 0.40 0.00 1009.7
20260507021739 0 0.0 0.0 0.00 0.40 0.00 1009.8
20260507020739 0 0.0 0.0 0.00 0.40 0.00 1009.6
20260507020240 0 0.0 0.0 0.00 0.40 0.00 1009.9
20260507020236 0 0.0 0.0 0.00 0.40 0.00 1009.9
20260507015235 0 0.0 0.0 0.00 0.40 0.00 1009.8
20260507014734 0 0.0 0.0 0.00 0.40 0.00 1009.7
20260507014238 0 0.0 0.0 0.00 0.40 0.00 1009.7
20260507014234 0 0.0 0.0 0.00 0.40 0.00 1009.7
20260507013238 0 0.0 0.0 0.00 0.40 0.00 1009.3
20260507013233 0 0.0 0.0 0.00 0.40 0.00 1009.6
20260507012730 0 0.0 0.0 0.00 0.40 0.00 1009.4
20260507011730 0 0.0 0.0 0.00 0.40 0.00 1009.1
20260507011228 0 0.0 0.0 0.00 0.40 0.00 1009.1
20260507010727 0 0.0 0.0 0.00 0.40 0.00 1008.9
20260507010226 0 0.0 0.0 0.00 0.40 0.00 1009.1
20260507005726 0 0.0 0.0 0.00 0.40 0.00 1009.1
20260507005225 0 0.0 0.0 0.00 0.40 0.00 1009.0
20260507004725 0 0.0 0.0 0.00 0.40 0.00 1008.9
20260507004224 0 0.0 0.0 0.00 0.40 0.00 1008.8
20260507003723 0 0.0 0.0 0.00 0.40 0.00 1008.8
20260507003225 0 0.0 0.0 0.00 0.40 0.00 1008.9
20260507003221 0 0.0 0.0 0.00 0.40 0.00 1008.8
20260507002220 0 0.0 0.0 0.00 0.40 0.00 1008.8
20260507001719 0 0.0 0.0 0.00 0.40 0.00 1008.6
20260507001221 0 0.0 0.0 0.00 0.40 0.00 1008.7
20260507001217 0 0.0 0.0 0.00 0.40 0.00 1008.7
20260507000216 0 0.0 0.0 0.00 0.40 0.00 1008.6
20260506235715 0 0.0 0.0 0.00 0.40 0.00 1008.6
20260506235215 0 0.0 0.0 0.00 0.40 0.00 1008.3
20260506234713 0 0.0 0.0 0.00 0.40 0.00 1008.2
20260506234212 0 0.0 0.0 0.00 0.40 0.00 1008.1
20260506233711 0 0.0 0.0 0.00 0.40 0.00 1007.9
20260506233211 0 0.0 0.0 0.00 0.40 0.00 1007.8
20260506232710 0 0.0 0.0 0.00 0.40 0.00 1007.7
20260506232209 0 0.0 0.0 0.00 0.40 0.00 1007.6
20260506231708 0 0.0 0.0 0.00 0.40 0.00 1007.5
20260506231207 0 0.0 0.0 0.00 0.40 0.00 1007.5
20260506230710 0 0.0 0.0 0.00 0.40 0.00 1007.4
20260506230706 0 0.0 0.0 0.00 0.40 0.00 1007.4
20260506225704 0 0.0 0.0 0.00 0.40 0.00 1007.3
20260506225202 0 0.0 0.0 0.00 0.40 0.00 1007.3
20260506224703 0 0.0 0.0 0.00 0.40 0.00 1007.1
20260506224202 0 0.0 0.0 0.00 0.40 0.00 1006.9
20260506223700 0 0.0 0.0 0.00 0.40 0.00 1006.7
20260506223201 0 0.0 0.0 0.00 0.40 0.00 1006.6
20260506222700 0 0.0 0.0 0.00 0.40 0.00 1006.2
20260506222159 0 0.0 0.0 0.00 0.40 0.00 1006.1
20260506221658 0 0.0 0.0 0.00 0.40 0.00 1006.1
20260506221157 0 0.0 0.0 0.00 0.40 0.00 1006.1
20260506220656 0 0.0 0.0 0.00 0.40 0.00 1006.1
20260506220200 0 0.0 0.0 0.00 0.40 0.00 1006.0
20260506220156 0 0.0 0.0 0.00 0.40 0.00 1006.1
20260506215154 0 0.0 0.0 0.00 0.40 0.00 1005.9
20260506214654 0 0.0 0.0 0.00 0.40 0.00 1005.9
20260506214151 0 0.0 0.0 0.00 0.40 0.00 1005.9
20260506213651 0 0.0 0.0 0.00 0.40 0.00 1005.9
20260506213150 0 0.0 0.0 0.00 0.40 0.00 1005.9
20260506212649 0 0.0 0.0 0.00 0.40 0.00 1005.9
20260506212148 0 0.0 0.0 0.00 0.40 0.00 1005.9
20260506211647 0 0.0 0.0 0.00 0.40 0.00 1005.8
20260506211146 0 0.0 0.0 0.00 0.40 0.00 1005.8
20260506210646 0 0.0 0.0 0.00 0.40 0.00 1005.7
20260506210150 0 0.0 0.0 0.00 0.40 0.00 1005.7
20260506210146 0 0.0 0.0 0.00 0.40 0.00 1005.7
20260506205147 0 0.0 0.0 0.00 0.40 0.00 1005.7
20260506205142 0 0.0 0.0 0.00 0.40 0.00 1005.7
20260506204141 0 0.0 0.0 0.00 0.40 0.00 1005.6
20260506203641 0 0.0 0.0 0.00 0.40 0.00 1005.7
20260506203140 0 0.0 0.0 0.00 0.40 0.00 1005.8
20260506202638 0 0.0 0.0 0.00 0.40 0.00 1005.8
20260506202137 0 0.0 0.0 0.00 0.40 0.00 1005.8
20260506201637 0 0.0 0.0 0.00 0.40 0.00 1005.9
20260506201136 0 323 33.0 33.0 0.00 0.40 0.00 1005.9
20260506200634 0 323 33.0 33.0 0.00 0.40 0.00 1005.9
20260506200134 0 0.0 0.0 0.00 0.40 0.00 1006.0
20260506195635 0 0.0 0.0 0.00 0.40 0.00 1006.1
20260506195132 0 0.0 0.0 0.00 0.40 0.00 1006.1
20260506194631 0 0.0 0.0 0.00 0.40 0.00 1006.1
20260506194131 0 0.0 0.0 0.00 0.40 0.00 1006.1
20260506193630 0 0.0 0.0 0.00 0.40 0.00 1006.2
20260506193128 0 0.0 0.0 0.00 0.40 0.00 1006.3
20260506192628 0 0.0 0.0 0.00 0.40 0.00 1006.4
20260506192127 0 0.0 0.0 0.00 0.40 0.00 1006.4
20260506191626 0 0.0 0.0 0.00 0.40 0.00 1006.4
20260506191126 0 0.0 0.0 0.00 0.40 0.00 1006.5
20260506190625 0 0.0 0.0 0.00 0.40 0.00 1006.5
20260506190123 0 0.0 0.0 0.00 0.40 0.00 1006.5
20260506185622 0 0.0 0.0 0.00 0.40 0.00 1006.6
20260506185122 0 0.0 0.0 0.00 0.40 0.00 1006.6
20260506184621 0 0.0 0.0 0.00 0.40 0.00 1006.6
20260506184120 0 0.0 0.0 0.00 0.40 0.00 1006.7
20260506183815 0 0.0 0.0 0.00 0.40 0.00 1006.8